Dayton Wright, OH

7:31 AM EST on December 12, 2017 (GMT -0500)
Dayton-Wright Brothers

Weather History for KMGY - December, 2013

Change the Weather History Date:

Monday, December 30, 2013

  Actual Average (KFFO) Record (KFFO)
Temperature  
Mean Temperature 26 °F -  
Max Temperature 30 °F 35 °F 55 °F (2002)
Min Temperature 21 °F 21 °F 8 °F (2001)
Degree Days  
Heating Degree Days 40    
Moisture  
Dew Point 19 °F    
Average Humidity 77    
Maximum Humidity 86    
Minimum Humidity 69    
Precipitation  
Precipitation 0.00 in - - ()
Sea Level Pressure  
Sea Level Pressure 30.18 in    
Wind  
Wind Speed 8 mph (WNW)    
Max Wind Speed 13 mph    
Max Gust Speed 21 mph    
Visibility 6 miles    
Events Snow    
Averages and records for this station are not official NWS values.
T = Trace of Precipitation, MM = Missing Value Source: NWS Daily Summary

Daily Weather History Graph

Daily Weather History Graph

Search for Another Location

Airport or City:

Trip Planner

Search our weather history database for the weather conditions in past years. The results will help you decide how hot, cold, wet, or windy it might be!

Date:

Astronomy

Dec. 30, 2013 Rise Set
Actual Time 7:57 AM EST 5:22 PM EST
Civil Twilight 7:26 AM EST 5:52 PM EST
Nautical Twilight 6:53 AM EST 6:26 PM EST
Astronomical Twilight 6:20 AM EST 6:58 PM EST
Moon 5:46 AM EST (12/30) 3:54 PM EST (12/30)
Length of Visible Light 10h 25m
Length of Day
9h 24m
Waning Crescent, 5% of the Moon is Illuminated
Dec 30
Waning Crescent
Jan 1
New
Jan 7
First Quarter
Jan 15
Full
Jan 24
Last Quarter

Hourly Weather History & Observations

Time (EST) Temp. Windchill Dew Point Humidity Pressure Visibility Wind Dir Wind Speed Gust Speed Precip Events Conditions
12:53 AM 30.9 °F 22.2 °F 24.1 °F 76% 30.05 in 10.0 mi NW 10.4 mph 20.7 mph N/A   Overcast
1:53 AM 30.0 °F 20.0 °F 24.1 °F 79% 30.06 in 10.0 mi WNW 12.7 mph - N/A   Overcast
2:53 AM 28.9 °F 19.8 °F 23.0 °F 78% 30.10 in 10.0 mi WNW 10.4 mph - N/A   Overcast
3:53 AM 28.0 °F 18.1 °F 21.0 °F 75% 30.11 in 10.0 mi WNW 11.5 mph 18.4 mph N/A   Overcast
4:53 AM 28.9 °F 19.8 °F 19.9 °F 69% 30.13 in 10.0 mi NW 10.4 mph - N/A   Overcast
5:29 AM 28.4 °F 19.7 °F 19.4 °F 69% 30.12 in 10.0 mi WNW 9.2 mph - N/A   Overcast
5:51 AM 28.4 °F 21.2 °F 19.4 °F 69% 30.13 in 10.0 mi WNW 6.9 mph - N/A   Overcast
5:53 AM 28.0 °F 19.3 °F 19.9 °F 72% 30.16 in 10.0 mi WNW 9.2 mph - N/A   Overcast
6:53 AM 28.0 °F 24.2 °F 21.9 °F 78% 30.17 in 10.0 mi NW 3.5 mph - N/A   Overcast
7:53 AM 27.0 °F 17.3 °F 21.0 °F 78% 30.20 in 10.0 mi WNW 10.4 mph - N/A   Overcast
8:09 AM 26.6 °F 18.2 °F 21.2 °F 80% 30.17 in 10.0 mi WNW 8.1 mph - N/A   Overcast
8:53 AM 26.1 °F 18.4 °F 19.9 °F 78% 30.22 in 10.0 mi West 6.9 mph - N/A   Overcast
9:26 AM 26.6 °F 17.5 °F 19.4 °F 74% 30.19 in 2.5 mi NW 9.2 mph - 0.00 in Snow Light Snow
9:53 AM 26.1 °F 17.6 °F 19.9 °F 78% 30.24 in 3.0 mi WNW 8.1 mph - 0.00 in Snow Light Snow
10:01 AM 26.6 °F 19.1 °F 19.4 °F 74% 30.21 in 2.5 mi WNW 6.9 mph - 0.00 in Snow Light Snow
10:08 AM 26.6 °F 18.2 °F 21.2 °F 80% 30.21 in 3.0 mi WNW 8.1 mph - 0.00 in Snow Light Snow
10:41 AM 26.6 °F 20.0 °F 19.4 °F 74% 30.22 in 2.0 mi West 5.8 mph - 0.00 in Snow Light Snow
10:53 AM 26.1 °F 18.4 °F 21.0 °F 81% 30.25 in 2.5 mi NW 6.9 mph - 0.00 in Snow Light Snow
11:00 AM 24.8 °F 19.1 °F 21.2 °F 86% 30.21 in 2.5 mi NW 4.6 mph - 0.00 in Snow Light Snow
11:07 AM 24.8 °F 17.9 °F 21.2 °F 86% 30.22 in 3.0 mi NNW 5.8 mph - 0.00 in Snow Light Snow
11:49 AM 24.8 °F 19.1 °F 19.4 °F 80% 30.21 in 3.0 mi NW 4.6 mph - 0.00 in Snow Light Snow
11:53 AM 25.0 °F 17.1 °F 19.0 °F 78% 30.25 in 4.0 mi WNW 6.9 mph - 0.00 in Snow Light Snow
12:19 PM 24.8 °F 17.9 °F 19.4 °F 80% 30.20 in 8.0 mi NW 5.8 mph - 0.00 in   Overcast
12:53 PM 26.1 °F 18.4 °F 19.0 °F 75% 30.23 in 7.0 mi NW 6.9 mph - 0.00 in   Overcast
1:08 PM 24.8 °F 16.9 °F 19.4 °F 80% 30.19 in 9.0 mi NW 6.9 mph - N/A   Overcast
1:53 PM 25.0 °F 16.3 °F 19.0 °F 78% 30.20 in 7.0 mi North 8.1 mph - N/A   Overcast
2:53 PM 26.1 °F 20.5 °F 19.0 °F 75% 30.19 in 9.0 mi Variable 4.6 mph - N/A   Overcast
3:07 PM 24.8 °F 20.5 °F 19.4 °F 80% 30.16 in 2.5 mi NNW 3.5 mph - 0.00 in Snow Light Snow
3:16 PM 26.6 °F 22.6 °F 19.4 °F 74% 30.16 in 3.0 mi NNW 3.5 mph - 0.00 in Snow Light Snow
3:25 PM 24.8 °F 20.5 °F 19.4 °F 80% 30.16 in 2.0 mi NW 3.5 mph - 0.00 in Snow Light Snow
3:30 PM 24.8 °F 20.5 °F 19.4 °F 80% 30.16 in 1.8 mi Variable 3.5 mph - 0.00 in Snow Light Snow
3:53 PM 25.0 °F 20.7 °F 19.0 °F 78% 30.20 in 1.2 mi NW 3.5 mph - 0.00 in Snow Light Snow
4:20 PM 24.8 °F 17.9 °F 19.4 °F 80% 30.16 in 2.0 mi NNW 5.8 mph - 0.00 in Snow Light Snow
4:28 PM 24.8 °F 17.9 °F 19.4 °F 80% 30.16 in 1.5 mi NNW 5.8 mph - 0.00 in Snow Light Snow
4:38 PM 24.8 °F 20.5 °F 19.4 °F 80% 30.16 in 3.0 mi NW 3.5 mph - 0.00 in Snow Light Snow
4:53 PM 24.1 °F 18.2 °F 19.0 °F 81% 30.19 in 4.0 mi NNW 4.6 mph - 0.00 in Snow Light Snow
5:53 PM 25.0 °F - 17.1 °F 72% 30.20 in 10.0 mi Calm Calm - 0.00 in   Overcast
6:53 PM 25.0 °F 19.3 °F 17.1 °F 72% 30.22 in 10.0 mi West 4.6 mph - N/A   Overcast
7:53 PM 24.1 °F 16.0 °F 15.1 °F 69% 30.23 in 10.0 mi West 6.9 mph - N/A   Overcast
8:53 PM 24.1 °F 18.2 °F 16.0 °F 71% 30.22 in 10.0 mi WSW 4.6 mph - N/A   Overcast
9:53 PM 23.0 °F 14.7 °F 15.1 °F 72% 30.22 in 10.0 mi WSW 6.9 mph - N/A   Mostly Cloudy
10:53 PM 21.9 °F 11.0 °F 14.0 °F 72% 30.22 in 10.0 mi SW 10.4 mph - N/A   Mostly Cloudy
11:53 PM 21.9 °F 13.4 °F 14.0 °F 72% 30.19 in 10.0 mi SW 6.9 mph - N/A   Mostly Cloudy